Flag for Romania Weather past 2 weeks in Sibiu, Romania

Now
82 °F

Passing clouds.


Feels Like: 81 °F
Forecast: 57 / 83 °F
Wind: 5 mph from East

Location: Sibiu Airport

Current Time: Aug 1, 2014 at 7:16:45 PM

Latest Report: Aug 1, 2014 at 6:30 PM


Visibility: N/A

Pressure: 29.83 "Hg

Humidity: 32%

Dew point: 50 °F

Location of SibiuLocation

Historic Weather in Sibiu — Graph

°F

Sibiu temperature yesterday

Maximum temperature yesterday: 82 °F (at 4:30 PM)
Minimum temperature yesterday: 66 °F (at 6:00 AM)
Average temperature yesterday: 73 °F

Past Weeks' High & Low Weather Summary

 TemperatureHumidityPressure
High86 °F (Jul 20, 5:00 PM)100% (Jul 18, 5:00 AM)30.07 "Hg (Jul 18, 5:00 AM)
Low55 °F (Jul 24, 5:00 AM)27% (Jul 21, 3:30 PM)29.77 "Hg (Jul 23, 5:00 AM)
Average70 °F75%29.94 "Hg
* Reported Jul 17 6:00 PM — Aug 1 6:00 PM, Sibiu, Weather by CustomWeather, © 2014

Note: Actual official high and low records may vary slightly from our data, if they occured in-between our weather recording intervals... More about our weather records

Advertising

Sibiu weather history for previous 24 hours

 ConditionsComfort  
Time TempWeatherWind HumidityBarometerVisibility
6:00 PM
Aug 1
82 °FScattered clouds.2 mph30%29.83 "HgN/A
5:30 PM82 °FScattered clouds.5 mph30%29.86 "HgN/A
5:00 PM84 °FPassing clouds.7 mph29%29.86 "HgN/A
4:30 PM82 °FPassing clouds.2 mph30%29.86 "HgN/A
4:00 PM82 °FPassing clouds.7 mph37%29.86 "HgN/A
3:30 PM82 °FPassing clouds.7 mph37%29.86 "HgN/A
3:00 PM82 °FPassing clouds.9 mph37%29.86 "HgN/A
2:30 PM81 °FPassing clouds.12 mph34%29.86 "HgN/A
2:00 PM81 °FPassing clouds.9 mph32%29.86 "HgN/A
1:00 PM79 °FSunny.9 mph48%29.86 "Hg10 mi
12:30 PM77 °FSunny.5 mph54%29.89 "Hg10 mi
12:00 PM75 °FPassing clouds.5 mph50%29.89 "HgN/A
11:30 AM75 °FPassing clouds.7 mph54%29.89 "HgN/A
11:00 AM73 °FPassing clouds.7 mph57%29.89 "HgN/A
10:30 AM72 °FPassing clouds.5 mph65%29.89 "HgN/A
10:00 AM72 °FSunny.No wind69%29.86 "Hg10 mi
9:30 AM70 °FSunny.2 mph73%29.89 "Hg10 mi
9:00 AM66 °FSunny.2 mph78%29.89 "Hg10 mi
8:30 AM64 °FSunny.No wind78%29.89 "Hg10 mi
8:00 AM63 °FFog.No wind88%29.86 "HgN/A
7:30 AM61 °FFog.No wind94%29.86 "HgN/A
6:30 AM55 °FFog.No wind100%29.86 "Hg6 mi
6:00 AM55 °FClear.No wind100%29.86 "Hg10 mi
5:30 AM57 °FClear.No wind100%29.86 "Hg10 mi
5:00 AM57 °FClear.No wind100%29.86 "Hg10 mi
4:00 AM59 °FClear.No wind94%29.86 "Hg10 mi
3:00 AM59 °FClear.No wind94%29.86 "Hg10 mi
2:00 AM61 °FClear.No wind88%29.86 "Hg10 mi
1:00 AM61 °FPassing clouds.5 mph88%29.86 "HgN/A
12:00 AM63 °FClear.5 mph94%29.86 "Hg10 mi
11:00 PM
Jul 31
66 °FClear.2 mph88%29.86 "Hg10 mi
10:00 PM66 °FPassing clouds.5 mph88%29.86 "HgN/A
9:00 PM70 °FPassing clouds.7 mph78%29.83 "HgN/A
8:30 PM70 °FPassing clouds.5 mph78%29.83 "HgN/A
8:00 PM72 °FScattered clouds.7 mph73%29.83 "HgN/A
7:30 PM73 °FScattered clouds.7 mph69%29.80 "HgN/A
7:00 PM79 °FThunderstorms. Scattered clouds.2 mph70%29.80 "HgN/A
Weather by CustomWeather, © 2014

See weather overviewHow to use our weather pages